OSCAR 7 1 07530U 74089B 26073.90267001 -.00000016 00000-0 19098-3 0 9994 2 07530 101.9966 86.1487 0011943 312.0070 113.5034 12.53696509348709 OSCAR 11 (UOSAT 2) 1 14781U 84021B 26073.90994790 .00001858 00000-0 19576-3 0 9994 2 14781 97.7954 40.6105 0008740 128.4225 231.7779 14.90526997243088 OSCAR 19 (LUSAT) 1 20442U 90005G 26073.78400388 .00000191 00000-0 84803-4 0 9990 2 20442 98.8932 92.9553 0012531 120.6273 239.6149 14.34090436888865 EYESAT A 1 22825U 93061C 26073.67171341 .00000127 00000-0 65347-4 0 9995 2 22825 98.6971 141.0853 0008714 25.2992 334.8616 14.30914940693488 ITAMSAT 1 22826U 93061D 26073.67919742 .00000146 00000-0 72055-4 0 9996 2 22826 98.6920 141.0008 0008911 8.8775 351.2564 14.31339177693793 RADIO ROSTO 1 23439U 94085A 26073.75080517 -.00000043 00000-0 -20323-4 0 9991 2 23439 64.8133 95.9468 0152852 21.0791 339.6344 11.27583888285257 JAS 2 1 24278U 96046B 26073.60013971 .00000022 00000-0 60160-4 0 9994 2 24278 98.5375 295.3553 0349616 342.0303 16.8727 13.53269068460372 TECHSAT 1B 1 25397U 98043D 26073.93813911 .00000102 00000-0 64460-4 0 9990 2 25397 99.0030 64.3394 0002196 111.1627 248.9785 14.24407775437913 ISS (ZARYA) 1 25544U 98067A 26073.80519411 .00010373 00000-0 20105-3 0 9992 2 25544 51.6329 47.0659 0006371 190.9724 169.1126 15.48281436557126 PCSAT 1 26931U 01043C 26073.58737432 .00000170 00000-0 94420-4 0 9997 2 26931 67.0498 128.9462 0006995 265.0362 94.9941 14.31914913276908 SAUDISAT 1C 1 27607U 02058C 26073.27104551 .00002083 00000-0 26271-3 0 9994 2 27607 64.5526 62.6028 0075308 279.8659 79.3951 14.82804742250387 CUTE-1 1 27844U 03031E 26073.90291045 .00000398 00000-0 19111-3 0 9996 2 27844 98.6776 83.6370 0010761 99.0298 261.2099 14.24271034178259 CUBESAT XI 4 1 27848U 03031J 26073.56320221 .00000349 00000-0 17224-3 0 9990 2 27848 98.6807 83.0901 0010521 116.0304 244.1959 14.23565240177915 MOZHAYETS 4 1 27939U 03042A 26073.96702708 .00002004 00000-0 31810-3 0 9998 2 27939 98.3445 255.6750 0010752 202.2227 306.9819 14.73272902201676 CUBESAT XI 5 1 28895U 05043F 26073.40511845 .00002210 00000-0 35702-3 0 9995 2 28895 98.2838 227.1185 0014965 143.2981 216.9253 14.72342957 87806 CUTE-1.7+APD 2 1 32785U 08021C 26073.88776943 .00008698 00000-0 56187-3 0 9997 2 32785 97.8206 53.4525 0009024 1.3773 358.7478 15.08455682970977 SEEDS 1 32791U 08021J 26073.89413704 .00024970 00000-0 87844-3 0 9993 2 32791 97.7514 67.5419 0000649 329.5812 30.5389 15.29334206972863 YUBELEINY 1 32953U 08025A 26073.93895712 .00000089 00000-0 56666-3 0 9998 2 32953 82.5006 54.0562 0019715 153.8663 206.3416 12.43176404807988 KKS-1 (KISEKI) 1 33499U 09002H 26073.86319245 .00002113 00000-0 26768-3 0 9994 2 33499 98.1183 354.8369 0006665 230.3696 129.6929 14.82852034922211 SWISSCUBE 1 35932U 09051B 26073.95170288 .00001364 00000-0 28021-3 0 9995 2 35932 98.4097 340.1877 0007423 137.4075 222.7702 14.62275636875389 BEESAT 1 35933U 09051C 26073.77613598 .00001190 00000-0 24964-3 0 9991 2 35933 98.4025 339.8391 0005655 148.3380 211.8162 14.61546707875391 ITUPSAT 1 1 35935U 09051E 26073.68477454 .00001075 00000-0 23266-3 0 9998 2 35935 98.4111 339.0360 0007602 162.6580 197.4880 14.60280145874948 XIWANG-1 (HOPE-1) 1 36122U 09072B 26073.92893966 .00000190 00000-0 61261-3 0 9991 2 36122 100.3916 29.3111 0008132 88.3987 271.8057 13.16436527780609 TISAT 1 1 36799U 10035E 26073.80028224 .00030810 00000-0 11309-2 0 9995 2 36799 98.0644 12.3029 0002022 152.2134 207.9212 15.27894692853279 JUGNU 1 37839U 11058B 26073.57141022 .00000513 00000-0 12835-3 0 9996 2 37839 19.9595 163.2385 0018726 111.0167 277.7923 14.13743579745624 SRMSAT 1 37841U 11058D 26073.93795175 .00000465 00000-0 10856-3 0 9990 2 37841 19.9715 269.9394 0011719 247.0003 267.6131 14.11549952744488 HORYU 2 1 38340U 12025D 26073.86782691 .00004692 00000-0 48724-3 0 9992 2 38340 98.2009 203.0711 0009154 128.1270 232.0773 14.90423352734676 STRAND 1 1 39090U 13009E 26073.43811536 .00000416 00000-0 15431-3 0 9991 2 39090 98.3892 256.0118 0009274 148.2913 211.8834 14.37099499683453 CUBEBUG 1 1 39153U 13018D 26073.92149680 .00005771 00000-0 51056-3 0 9991 2 39153 98.1538 229.7686 0013180 99.9268 260.3441 14.96650760696963 ZACUBE 1 39417U 13066B 26073.86543069 .00005958 00000-0 47004-3 0 9994 2 39417 97.8157 35.7145 0043139 202.7590 157.1722 15.00383064666589 TRITON 1 1 39427U 13066M 26074.00792215 .00003261 00000-0 39687-3 0 9994 2 39427 97.8290 345.9754 0090529 180.3396 179.7771 14.81230595660148 GOMX 1 1 39430U 13066Q 26073.93299681 .00002309 00000-0 35296-3 0 9992 2 39430 97.6571 280.3111 0129920 20.7697 339.8721 14.69120759656077 HUMSAT D 1 39433U 13066T 26068.77891092 .07089284 25853-5 14695-2 0 9996 2 39433 97.4699 82.1645 0007750 211.8767 148.2059 16.31051261671486 CUBEBUG 2 1 39440U 13066AA 26073.79119560 .00007595 00000-0 71207-3 0 9998 2 39440 97.8811 22.4718 0057976 342.0979 17.8197 14.93025936662906 FUNCUBE 1 1 39444U 13066AE 26073.88321280 .00009954 00000-0 64012-3 0 9993 2 39444 97.8183 43.5100 0037855 161.5965 198.6642 15.08011515665444 UWE-3 1 39446U 13066AG 26073.81235072 .00006951 00000-0 60700-3 0 9995 2 39446 97.8594 29.3635 0047882 274.4860 85.0892 14.96245702663465 UNISAT 6 1 40012U 14033C 26073.91976005 .00003921 00000-0 42840-3 0 9999 2 40012 97.7730 228.3944 0045719 20.8398 339.4669 14.87679739632147 DUCHIFAT 1 1 40021U 14033M 26073.67032461 .00083504 00000-0 14522-2 0 9991 2 40021 98.0633 120.6867 0005627 70.3630 289.8226 15.50487868641041 QB50P1 1 40025U 14033R 26073.92236118 .00012053 00000-0 61890-3 0 9990 2 40025 98.1006 78.5591 0008972 175.8999 184.2308 15.16643252638734 OBJECT G 1 40905U 15049G 26073.93261436 .00042528 00000-0 53430-3 0 9998 2 40905 97.4714 112.7768 0005791 185.2876 174.8321 15.59568640581721 LILACSAT 2 1 40908U 15049K 26074.00894259 .00021870 00000-0 41589-3 0 9994 2 40908 97.4803 107.4190 0006087 221.8055 138.2730 15.48245624581166 LQSAT 1 40958U 15057A 26073.95254793 .00001041 00000-0 15553-3 0 9994 2 40958 97.6668 72.0166 0015988 214.6098 145.4074 14.76647894561400 CHUBUSAT 2 1 41338U 16012B 26073.80525041 .00008297 00000-0 37170-3 0 9999 2 41338 30.9966 220.2957 0008680 192.7171 167.3252 15.19834020554048 CHUBUSAT 3 1 41339U 16012C 26073.85759608 .00006465 00000-0 30722-3 0 9994 2 41339 31.0035 227.3682 0009148 183.7621 176.2951 15.17695623553856 PRATHAM 1 41783U 16059A 26073.92097506 .00000938 00000-0 17429-3 0 9996 2 41783 97.8320 74.9361 0031848 156.4990 203.7679 14.67049567505690 ALSAT 1N 1 41789U 16059G 26073.92744715 .00001048 00000-0 18531-3 0 9991 2 41789 97.8039 81.4809 0027047 127.2829 233.0849 14.69129537506162